Location: Tom
(33.0437°N, 96.9452°W)
Time: 19:21:19
(UTC-06:00)

ISS - Pass Details

Date: 23 January 2019
Orbit: 403 x 411 km, 51.6° (Epoch: 19 February)

Event Time Altitude Azimuth Distance (km) Brightness Sun altitude
Rises 19:16:08 0° 261° (W) 2,323 1.8 -17.8°
Reaches altitude 10° 19:18:41 10° 282° (WNW) 1,467 0.0 -18.3°
Maximum altitude 19:21:00 18° 327° (NNW) 1,098 -1.4 -18.8°
Enters shadow 19:22:19 15° 355° (N) 1,231 -1.5 -19.1°
